NEE-01 PEGASO

Last updated on Wed Oct 29 2025 00:03:53 GMT+0000 (Coordinated Universal Time)

1 39151U 13018B 25301.35829122 .00004670 00000+0 46743-3 0 9998 2 39151 98.0920 73.6036 0012740 203.6311 156.4323 14.91862402676116
UTC large
Height (km)
Speed (km/s)
/
Latitude / Longitude
Inclination (degrees)
Orbital Period (minutes)
Azimuth
Elevation
Range (km)
Doppler Factor

Next 0 passes for location: London (51.5072 / 0.1276)

Sorry there are no passes over London.